Location: Arrien
(43.3167°N, 0.1500°W)
Time: 22:13:48
(UTC+00:00)

CSL-04 Rocket - Pass Details

Date: 15 October 2021
Orbit: 805 x 860 km, 98.9° (Epoch: 03 December)

Event Time Altitude Azimuth Distance (km) Brightness Sun altitude
Exits shadow 19:47:11 37° 192° (SSW) 1,288 4.5 -27.9°
Maximum altitude 19:49:16 64° 258° (WSW) 946 4.0 -28.2°
Drops below altitude 10° 19:54:47 10° 340° (NNW) 2,503 6.6 -29.2°
Sets 19:57:13 0° 343° (NNW) 3,447 7.3 -29.6°
